Time,TemperatureF,DewpointF,PressureIn,WindDirection,WindDirectionDegrees,WindSpeedMPH,WindSpeedGustMPH,Humidity,HourlyPrecipIn,Conditions,Clouds,dailyrainin,SoftwareType,DateUTC
2013-03-28 00:00:00,56.5,43.6,29.67,NNE,22,0.0,0.0,62,0.00,,,0.00,WUHU21623XXSP,2013-03-28 04:00:00,
2013-03-28 00:05:00,56.5,43.6,29.67,NNE,22,0.0,0.0,62,0.00,,,0.00,WUHU21623XXSP,2013-03-28 04:05:00,
2013-03-28 00:10:00,56.5,43.6,29.67,NNE,22,0.0,0.0,62,0.00,,,0.00,WUHU21623XXSP,2013-03-28 04:10:00,
2013-03-28 00:15:00,56.5,43.6,29.67,NNE,22,0.0,0.0,62,0.00,,,0.00,WUHU21623XXSP,2013-03-28 04:15:00,
2013-03-28 00:20:00,56.5,43.6,29.67,NNE,22,0.0,0.0,62,0.00,,,0.00,WUHU21623XXSP,2013-03-28 04:20:00,
2013-03-28 00:25:00,56.3,43.8,29.67,NNE,22,0.0,0.0,63,0.00,,,0.00,WUHU21623XXSP,2013-03-28 04:25:00,
2013-03-28 00:30:00,56.1,43.6,29.67,NNE,22,0.0,0.0,63,0.00,,,0.00,WUHU21623XXSP,2013-03-28 04:30:00,
2013-03-28 00:35:00,56.1,43.6,29.67,North,0,0.0,0.0,63,0.00,,,0.00,WUHU21623XXSP,2013-03-28 04:35:00,
2013-03-28 00:40:00,55.9,43.5,29.67,North,0,0.0,0.0,63,0.00,,,0.00,WUHU21623XXSP,2013-03-28 04:40:00,
2013-03-28 00:45:00,56.1,43.6,29.66,North,0,0.0,0.0,63,0.00,,,0.00,WUHU21623XXSP,2013-03-28 04:45:00,
2013-03-28 00:50:00,56.1,44.1,29.66,North,0,0.0,0.0,64,0.00,,,0.00,WUHU21623XXSP,2013-03-28 04:50:00,
2013-03-28 00:55:00,55.9,43.9,29.66,NNW,337,0.0,0.0,64,0.00,,,0.00,WUHU21623XXSP,2013-03-28 04:55:00,
2013-03-28 01:00:00,55.9,43.9,29.66,North,0,0.0,0.0,64,0.00,,,0.00,WUHU21623XXSP,2013-03-28 05:00:00,
2013-03-28 01:05:00,55.9,43.9,29.66,NNE,22,0.0,0.0,64,0.00,,,0.00,WUHU21623XXSP,2013-03-28 05:05:00,
2013-03-28 01:10:00,55.9,43.9,29.66,NNE,22,0.0,0.0,64,0.00,,,0.00,WUHU21623XXSP,2013-03-28 05:10:00,
2013-03-28 01:15:00,55.8,43.7,29.66,NNE,22,0.0,0.0,64,0.00,,,0.00,WUHU21623XXSP,2013-03-28 05:15:00,
2013-03-28 01:20:00,55.8,43.7,29.66,North,0,0.0,0.0,64,0.00,,,0.00,WUHU21623XXSP,2013-03-28 05:20:00,
2013-03-28 01:25:00,55.8,43.7,29.66,NNE,22,0.0,0.0,64,0.00,,,0.00,WUHU21623XXSP,2013-03-28 05:25:00,
2013-03-28 01:30:00,55.6,44.0,29.65,NNE,22,0.0,0.0,65,0.00,,,0.00,WUHU21623XXSP,2013-03-28 05:30:00,
2013-03-28 01:35:00,55.6,43.5,29.65,NNE,22,0.0,0.0,64,0.00,,,0.00,WUHU21623XXSP,2013-03-28 05:35:00,
2013-03-28 01:40:00,55.4,43.8,29.65,NNE,22,0.0,0.0,65,0.00,,,0.00,WUHU21623XXSP,2013-03-28 05:40:00,
2013-03-28 01:45:00,55.2,43.6,29.65,NNE,22,0.0,0.0,65,0.00,,,0.00,WUHU21623XXSP,2013-03-28 05:45:00,
2013-03-28 01:50:00,55.2,43.6,29.65,NNE,22,0.0,0.0,65,0.00,,,0.00,WUHU21623XXSP,2013-03-28 05:50:00,
2013-03-28 01:55:00,55.2,43.6,29.65,NNE,22,0.0,0.0,65,0.00,,,0.00,WUHU21623XXSP,2013-03-28 05:55:00,
2013-03-28 02:00:00,55.0,43.4,29.65,NNE,22,0.0,0.0,65,0.00,,,0.00,WUHU21623XXSP,2013-03-28 06:00:00,
2013-03-28 02:05:00,55.0,43.4,29.65,NNE,22,0.0,0.0,65,0.00,,,0.00,WUHU21623XXSP,2013-03-28 06:05:00,
2013-03-28 02:10:00,55.0,43.4,29.66,NNE,22,0.0,0.0,65,0.00,,,0.00,WUHU21623XXSP,2013-03-28 06:10:00,
2013-03-28 02:15:00,55.0,43.4,29.66,NNE,22,0.0,0.0,65,0.00,,,0.00,WUHU21623XXSP,2013-03-28 06:15:00,
2013-03-28 02:20:00,55.0,43.4,29.66,NNE,22,0.0,0.0,65,0.00,,,0.00,WUHU21623XXSP,2013-03-28 06:20:00,
2013-03-28 02:25:00,54.9,43.3,29.66,NE,45,0.0,0.0,65,0.00,,,0.00,WUHU21623XXSP,2013-03-28 06:25:00,
2013-03-28 02:30:00,55.0,43.0,29.66,North,0,0.0,0.0,64,0.00,,,0.00,WUHU21623XXSP,2013-03-28 06:30:00,
2013-03-28 02:35:00,54.9,42.9,29.65,NNE,22,0.0,0.0,64,0.00,,,0.00,WUHU21623XXSP,2013-03-28 06:35:00,
2013-03-28 02:40:00,55.0,43.0,29.65,NNE,22,0.0,0.0,64,0.00,,,0.00,WUHU21623XXSP,2013-03-28 06:40:00,
2013-03-28 02:45:00,55.0,43.0,29.65,North,0,0.0,0.0,64,0.00,,,0.00,WUHU21623XXSP,2013-03-28 06:45:00,
2013-03-28 02:50:00,54.9,42.9,29.65,NNE,22,0.0,0.0,64,0.00,,,0.00,WUHU21623XXSP,2013-03-28 06:50:00,
2013-03-28 02:55:00,54.9,42.9,29.64,North,0,0.0,0.0,64,0.00,,,0.00,WUHU21623XXSP,2013-03-28 06:55:00,
2013-03-28 03:00:00,54.9,42.9,29.65,North,0,0.0,0.0,64,0.00,,,0.00,WUHU21623XXSP,2013-03-28 07:00:00,
2013-03-28 03:05:00,54.7,42.7,29.65,North,0,0.0,0.0,64,0.00,,,0.00,WUHU21623XXSP,2013-03-28 07:05:00,
2013-03-28 03:10:00,54.7,42.7,29.64,NNW,337,0.0,0.0,64,0.00,,,0.00,WUHU21623XXSP,2013-03-28 07:10:00,
2013-03-28 03:15:00,54.7,42.3,29.64,NNE,22,0.0,0.0,63,0.00,,,0.00,WUHU21623XXSP,2013-03-28 07:15:00,
2013-03-28 03:20:00,54.9,42.5,29.64,North,0,0.0,0.0,63,0.00,,,0.00,WUHU21623XXSP,2013-03-28 07:20:00,
2013-03-28 03:25:00,54.7,42.3,29.64,North,0,0.0,0.0,63,0.00,,,0.00,WUHU21623XXSP,2013-03-28 07:25:00,
2013-03-28 03:30:00,54.9,42.9,29.64,NNE,22,0.0,0.0,64,0.00,,,0.00,WUHU21623XXSP,2013-03-28 07:30:00,
2013-03-28 03:35:00,55.0,43.4,29.64,NNE,22,0.0,0.0,65,0.00,,,0.00,WUHU21623XXSP,2013-03-28 07:35:00,
2013-03-28 03:40:00,54.9,43.3,29.63,North,0,0.0,0.0,65,0.00,,,0.00,WUHU21623XXSP,2013-03-28 07:40:00,
2013-03-28 03:45:00,55.0,43.4,29.63,NE,45,0.0,0.0,65,0.00,,,0.00,WUHU21623XXSP,2013-03-28 07:45:00,
2013-03-28 03:50:00,54.7,43.1,29.63,NNW,337,0.0,0.0,65,0.00,,,0.00,WUHU21623XXSP,2013-03-28 07:50:00,
2013-03-28 03:55:00,54.7,43.1,29.63,NNE,22,0.0,0.0,65,0.00,,,0.00,WUHU21623XXSP,2013-03-28 07:55:00,
2013-03-28 04:00:00,54.5,42.9,29.63,NNE,22,0.0,0.0,65,0.00,,,0.00,WUHU21623XXSP,2013-03-28 08:00:00,
2013-03-28 04:05:00,54.5,42.9,29.63,NNW,337,0.0,0.0,65,0.00,,,0.00,WUHU21623XXSP,2013-03-28 08:05:00,
2013-03-28 04:10:00,54.3,42.4,29.63,North,0,0.0,0.0,64,0.00,,,0.00,WUHU21623XXSP,2013-03-28 08:10:00,
2013-03-28 04:15:00,54.3,42.4,29.63,North,0,0.0,0.0,64,0.00,,,0.00,WUHU21623XXSP,2013-03-28 08:15:00,
2013-03-28 04:20:00,54.3,42.4,29.63,North,0,0.0,0.0,64,0.00,,,0.00,WUHU21623XXSP,2013-03-28 08:20:00,
2013-03-28 04:25:00,54.3,42.4,29.63,NNW,337,0.0,0.0,64,0.00,,,0.00,WUHU21623XXSP,2013-03-28 08:25:00,
2013-03-28 04:30:00,54.3,42.4,29.63,NNW,337,0.0,0.0,64,0.00,,,0.00,WUHU21623XXSP,2013-03-28 08:30:00,
2013-03-28 04:35:00,54.3,42.4,29.63,North,0,0.0,0.0,64,0.00,,,0.00,WUHU21623XXSP,2013-03-28 08:35:00,
2013-03-28 04:40:00,54.1,42.2,29.63,North,0,0.0,0.0,64,0.00,,,0.00,WUHU21623XXSP,2013-03-28 08:40:00,
2013-03-28 04:45:00,54.1,41.8,29.63,North,0,0.0,0.0,63,0.00,,,0.00,WUHU21623XXSP,2013-03-28 08:45:00,
2013-03-28 04:50:00,54.0,42.0,29.63,North,0,0.0,0.0,64,0.00,,,0.00,WUHU21623XXSP,2013-03-28 08:50:00,
2013-03-28 04:55:00,54.1,42.2,29.63,North,0,0.0,0.0,64,0.00,,,0.00,WUHU21623XXSP,2013-03-28 08:55:00,
2013-03-28 05:00:00,54.0,41.6,29.63,North,0,0.0,0.0,63,0.00,,,0.00,WUHU21623XXSP,2013-03-28 09:00:00,
2013-03-28 05:05:00,53.8,41.8,29.63,North,0,0.0,0.0,64,0.00,,,0.00,WUHU21623XXSP,2013-03-28 09:05:00,
2013-03-28 05:10:00,53.8,41.8,29.63,North,0,0.0,0.0,64,0.00,,,0.00,WUHU21623XXSP,2013-03-28 09:10:00,
2013-03-28 05:15:00,53.4,41.5,29.63,North,0,0.0,0.0,64,0.00,,,0.00,WUHU21623XXSP,2013-03-28 09:15:00,
2013-03-28 05:20:00,53.6,41.7,29.63,NNE,22,0.0,0.0,64,0.00,,,0.00,WUHU21623XXSP,2013-03-28 09:20:00,
2013-03-28 05:25:00,53.8,41.8,29.63,NNE,22,0.0,0.0,64,0.00,,,0.00,WUHU21623XXSP,2013-03-28 09:25:00,
2013-03-28 05:30:00,53.4,41.5,29.63,NNE,22,0.0,0.0,64,0.00,,,0.00,WUHU21623XXSP,2013-03-28 09:30:00,
2013-03-28 05:35:00,53.4,41.5,29.63,North,0,0.0,0.0,64,0.00,,,0.00,WUHU21623XXSP,2013-03-28 09:35:00,
2013-03-28 05:40:00,53.4,41.5,29.63,NNW,337,0.0,0.0,64,0.00,,,0.00,WUHU21623XXSP,2013-03-28 09:40:00,
2013-03-28 05:45:00,53.4,41.5,29.63,North,0,0.0,0.0,64,0.00,,,0.00,WUHU21623XXSP,2013-03-28 09:45:00,
2013-03-28 05:50:00,53.4,41.5,29.64,NNW,337,0.0,0.0,64,0.00,,,0.00,WUHU21623XXSP,2013-03-28 09:50:00,
2013-03-28 05:55:00,53.4,41.5,29.64,NNW,337,0.0,0.0,64,0.00,,,0.00,WUHU21623XXSP,2013-03-28 09:55:00,
2013-03-28 06:00:00,53.4,41.5,29.64,North,0,0.0,0.0,64,0.00,,,0.00,WUHU21623XXSP,2013-03-28 10:00:00,
2013-03-28 06:05:00,53.4,41.5,29.64,NNE,22,0.0,0.0,64,0.00,,,0.00,WUHU21623XXSP,2013-03-28 10:05:00,
2013-03-28 06:10:00,53.4,41.5,29.64,North,0,0.0,0.0,64,0.00,,,0.00,WUHU21623XXSP,2013-03-28 10:10:00,
2013-03-28 06:15:00,53.4,41.5,29.64,NNW,337,0.0,0.0,64,0.00,,,0.00,WUHU21623XXSP,2013-03-28 10:15:00,
2013-03-28 06:20:00,53.4,41.5,29.64,North,0,0.0,0.0,64,0.00,,,0.00,WUHU21623XXSP,2013-03-28 10:20:00,
2013-03-28 06:25:00,53.2,41.3,29.65,NNW,337,0.0,0.0,64,0.00,,,0.00,WUHU21623XXSP,2013-03-28 10:25:00,
2013-03-28 06:30:00,52.9,41.0,29.65,NNW,337,0.0,0.0,64,0.00,,,0.00,WUHU21623XXSP,2013-03-28 10:30:00,
2013-03-28 06:35:00,52.9,41.0,29.65,North,0,0.0,0.0,64,0.00,,,0.00,WUHU21623XXSP,2013-03-28 10:35:00,
2013-03-28 06:40:00,52.7,40.8,29.65,NNW,337,0.0,0.0,64,0.00,,,0.00,WUHU21623XXSP,2013-03-28 10:40:00,
2013-03-28 06:45:00,52.7,40.8,29.65,NNW,337,0.0,0.0,64,0.00,,,0.00,WUHU21623XXSP,2013-03-28 10:45:00,
2013-03-28 06:50:00,52.7,40.8,29.65,NNW,337,0.0,0.0,64,0.00,,,0.00,WUHU21623XXSP,2013-03-28 10:50:00,
2013-03-28 06:55:00,52.5,41.1,29.65,North,0,0.0,0.0,65,0.00,,,0.00,WUHU21623XXSP,2013-03-28 10:55:00,
2013-03-28 07:00:00,52.3,40.9,29.65,NNW,337,0.0,0.0,65,0.00,,,0.00,WUHU21623XXSP,2013-03-28 11:00:00,
2013-03-28 07:05:00,52.3,40.9,29.65,NNW,337,0.0,0.0,65,0.00,,,0.00,WUHU21623XXSP,2013-03-28 11:05:00,
2013-03-28 07:10:00,52.3,41.3,29.65,NNW,337,0.0,0.0,66,0.00,,,0.00,WUHU21623XXSP,2013-03-28 11:10:00,
2013-03-28 07:15:00,52.3,41.3,29.65,NNW,337,0.0,0.0,66,0.00,,,0.00,WUHU21623XXSP,2013-03-28 11:15:00,
2013-03-28 07:20:00,52.2,41.1,29.65,NNW,337,0.0,0.0,66,0.00,,,0.00,WUHU21623XXSP,2013-03-28 11:20:00,
2013-03-28 07:25:00,52.2,41.1,29.65,NNE,22,0.0,0.0,66,0.00,,,0.00,WUHU21623XXSP,2013-03-28 11:25:00,
2013-03-28 07:30:00,52.0,41.4,29.66,NNE,22,0.0,0.0,67,0.00,,,0.00,WUHU21623XXSP,2013-03-28 11:30:00,
2013-03-28 07:35:00,52.0,41.4,29.66,NNE,22,0.0,0.0,67,0.00,,,0.00,WUHU21623XXSP,2013-03-28 11:35:00,
2013-03-28 07:40:00,52.0,41.4,29.66,NNE,22,0.0,0.0,67,0.00,,,0.00,WUHU21623XXSP,2013-03-28 11:40:00,
2013-03-28 07:45:00,52.2,41.5,29.66,NNW,337,0.0,0.0,67,0.00,,,0.00,WUHU21623XXSP,2013-03-28 11:45:00,
2013-03-28 07:50:00,52.2,41.5,29.66,NNW,337,0.0,0.0,67,0.00,,,0.00,WUHU21623XXSP,2013-03-28 11:50:00,
2013-03-28 07:55:00,52.3,41.7,29.66,NNW,337,0.0,0.0,67,0.00,,,0.00,WUHU21623XXSP,2013-03-28 11:55:00,
2013-03-28 08:00:00,52.5,41.9,29.66,NW,315,0.0,0.0,67,0.00,,,0.00,WUHU21623XXSP,2013-03-28 12:00:00,
2013-03-28 08:05:00,52.7,42.0,29.66,NNW,337,0.0,0.0,67,0.00,,,0.00,WUHU21623XXSP,2013-03-28 12:05:00,
2013-03-28 08:10:00,52.9,41.8,29.66,NNW,337,0.0,0.0,66,0.00,,,0.00,WUHU21623XXSP,2013-03-28 12:10:00,
2013-03-28 08:15:00,53.4,42.3,29.66,NNW,337,0.0,0.0,66,0.00,,,0.00,WUHU21623XXSP,2013-03-28 12:15:00,
2013-03-28 08:20:00,54.0,42.4,29.66,NNW,337,0.0,0.0,65,0.00,,,0.00,WUHU21623XXSP,2013-03-28 12:20:00,
2013-03-28 08:25:00,54.1,42.2,29.66,North,0,0.0,0.0,64,0.00,,,0.00,WUHU21623XXSP,2013-03-28 12:25:00,
2013-03-28 08:30:00,54.7,42.7,29.66,NNW,337,0.0,0.0,64,0.00,,,0.00,WUHU21623XXSP,2013-03-28 12:30:00,
2013-03-28 08:35:00,55.0,42.6,29.66,NW,315,0.0,0.0,63,0.00,,,0.00,WUHU21623XXSP,2013-03-28 12:35:00,
2013-03-28 08:40:00,55.8,42.9,29.67,NNW,337,0.0,0.0,62,0.00,,,0.00,WUHU21623XXSP,2013-03-28 12:40:00,
2013-03-28 08:45:00,56.7,43.4,29.67,NNE,22,0.0,0.0,61,0.00,,,0.00,WUHU21623XXSP,2013-03-28 12:45:00,
2013-03-28 08:50:00,57.0,43.7,29.67,NNE,22,0.0,0.0,61,0.00,,,0.00,WUHU21623XXSP,2013-03-28 12:50:00,
2013-03-28 08:55:00,57.0,43.7,29.67,NNE,22,0.0,0.0,61,0.00,,,0.00,WUHU21623XXSP,2013-03-28 12:55:00,
2013-03-28 09:00:00,57.9,43.2,29.68,North,0,0.0,0.0,58,0.00,,,0.00,WUHU21623XXSP,2013-03-28 13:00:00,
2013-03-28 09:05:00,57.9,42.8,29.68,NNW,337,0.0,0.0,57,0.00,,,0.00,WUHU21623XXSP,2013-03-28 13:05:00,
2013-03-28 09:10:00,58.5,43.7,29.68,NNW,337,0.0,0.0,58,0.00,,,0.00,WUHU21623XXSP,2013-03-28 13:10:00,
2013-03-28 09:15:00,58.8,43.6,29.68,NNW,337,0.0,0.0,57,0.00,,,0.00,WUHU21623XXSP,2013-03-28 13:15:00,
2013-03-28 09:20:00,58.8,43.6,29.68,NNW,337,0.0,0.0,57,0.00,,,0.00,WUHU21623XXSP,2013-03-28 13:20:00,
2013-03-28 09:25:00,59.5,44.3,29.68,NW,315,0.0,0.0,57,0.00,,,0.00,WUHU21623XXSP,2013-03-28 13:25:00,
2013-03-28 09:30:00,59.5,43.8,29.69,NW,315,0.0,0.0,56,0.00,,,0.00,WUHU21623XXSP,2013-03-28 13:30:00,
2013-03-28 09:35:00,59.9,44.1,29.68,NNW,337,0.0,0.0,56,0.00,,,0.00,WUHU21623XXSP,2013-03-28 13:35:00,
2013-03-28 09:40:00,60.6,44.8,29.69,NNW,337,0.0,0.0,56,0.00,,,0.00,WUHU21623XXSP,2013-03-28 13:40:00,
2013-03-28 09:45:00,61.5,44.2,29.69,NNW,337,0.0,0.0,53,0.00,,,0.00,WUHU21623XXSP,2013-03-28 13:45:00,
2013-03-28 09:50:00,61.5,44.7,29.69,North,0,0.0,0.0,54,0.00,,,0.00,WUHU21623XXSP,2013-03-28 13:50:00,
2013-03-28 09:55:00,61.9,44.5,29.70,NNW,337,0.0,0.0,53,0.00,,,0.00,WUHU21623XXSP,2013-03-28 13:55:00,
2013-03-28 10:00:00,62.6,45.2,29.70,NNW,337,0.0,0.0,53,0.00,,,0.00,WUHU21623XXSP,2013-03-28 14:00:00,
2013-03-28 10:05:00,62.4,45.0,29.70,North,0,0.0,0.0,53,0.00,,,0.00,WUHU21623XXSP,2013-03-28 14:05:00,
2013-03-28 10:10:00,63.1,45.6,29.70,North,0,0.0,0.0,53,0.00,,,0.00,WUHU21623XXSP,2013-03-28 14:10:00,
2013-03-28 10:15:00,64.0,46.0,29.70,NNW,337,0.0,0.0,52,0.00,,,0.00,WUHU21623XXSP,2013-03-28 14:15:00,
2013-03-28 10:20:00,64.2,45.6,29.71,NNW,337,0.0,0.0,51,0.00,,,0.00,WUHU21623XXSP,2013-03-28 14:20:00,
2013-03-28 10:25:00,64.4,45.8,29.71,NNW,337,0.0,0.0,51,0.00,,,0.00,WUHU21623XXSP,2013-03-28 14:25:00,
2013-03-28 10:30:00,64.6,46.0,29.71,North,0,0.0,0.0,51,0.00,,,0.00,WUHU21623XXSP,2013-03-28 14:30:00,
2013-03-28 10:35:00,64.9,46.3,29.71,North,0,0.0,0.0,51,0.00,,,0.00,WUHU21623XXSP,2013-03-28 14:35:00,
2013-03-28 10:40:00,66.0,46.9,29.71,NW,315,0.0,0.0,50,0.00,,,0.00,WUHU21623XXSP,2013-03-28 14:40:00,
2013-03-28 10:45:00,66.4,46.7,29.71,NNE,22,0.0,0.0,49,0.00,,,0.00,WUHU21623XXSP,2013-03-28 14:45:00,
2013-03-28 10:50:00,66.4,46.7,29.71,NNW,337,0.0,0.0,49,0.00,,,0.00,WUHU21623XXSP,2013-03-28 14:50:00,
2013-03-28 10:55:00,66.7,47.0,29.71,NW,315,0.0,0.0,49,0.00,,,0.00,WUHU21623XXSP,2013-03-28 14:55:00,
2013-03-28 11:00:00,67.6,47.2,29.71,NNW,337,0.0,0.0,48,0.00,,,0.00,WUHU21623XXSP,2013-03-28 15:00:00,
2013-03-28 11:05:00,67.5,46.5,29.71,NNE,22,0.0,0.0,47,0.00,,,0.00,WUHU21623XXSP,2013-03-28 15:05:00,
2013-03-28 11:10:00,67.8,46.2,29.71,ENE,67,0.0,0.0,46,0.00,,,0.00,WUHU21623XXSP,2013-03-28 15:10:00,
2013-03-28 11:15:00,68.2,46.5,29.71,NNE,22,0.0,0.0,46,0.00,,,0.00,WUHU21623XXSP,2013-03-28 15:15:00,
2013-03-28 11:20:00,68.7,46.4,29.71,North,0,0.0,0.0,45,0.00,,,0.00,WUHU21623XXSP,2013-03-28 15:20:00,
2013-03-28 11:25:00,68.9,47.2,29.71,North,0,0.0,0.0,46,0.00,,,0.00,WUHU21623XXSP,2013-03-28 15:25:00,
2013-03-28 11:30:00,69.4,46.5,29.71,NW,315,0.0,0.0,44,0.00,,,0.00,WUHU21623XXSP,2013-03-28 15:30:00,
2013-03-28 11:35:00,69.3,45.7,29.71,NNW,337,0.0,0.0,43,0.00,,,0.00,WUHU21623XXSP,2013-03-28 15:35:00,
2013-03-28 11:40:00,70.3,46.7,29.71,North,0,0.0,0.0,43,0.00,,,0.00,WUHU21623XXSP,2013-03-28 15:40:00,
2013-03-28 11:45:00,70.7,46.4,29.71,NNW,337,0.0,0.0,42,0.00,,,0.00,WUHU21623XXSP,2013-03-28 15:45:00,
2013-03-28 11:50:00,71.4,45.9,29.71,NNE,22,0.0,0.0,40,0.00,,,0.00,WUHU21623XXSP,2013-03-28 15:50:00,
2013-03-28 11:55:00,71.6,46.6,29.71,SSW,202,0.0,0.0,41,0.00,,,0.00,WUHU21623XXSP,2013-03-28 15:55:00,
2013-03-28 12:00:00,72.3,46.7,29.71,NE,45,0.0,0.0,40,0.00,,,0.00,WUHU21623XXSP,2013-03-28 16:00:00,
2013-03-28 12:05:00,72.3,45.9,29.71,NNW,337,0.0,0.0,39,0.00,,,0.00,WUHU21623XXSP,2013-03-28 16:05:00,
2013-03-28 12:10:00,72.0,46.4,29.71,WSW,247,0.0,0.0,40,0.00,,,0.00,WUHU21623XXSP,2013-03-28 16:10:00,
2013-03-28 12:15:00,73.2,46.7,29.71,West,270,0.0,0.0,39,0.00,,,0.00,WUHU21623XXSP,2013-03-28 16:15:00,
2013-03-28 12:20:00,73.4,45.4,29.71,NNE,22,0.0,0.0,37,0.00,,,0.00,WUHU21623XXSP,2013-03-28 16:20:00,
2013-03-28 12:25:00,72.7,44.8,29.71,NNW,337,0.0,0.0,37,0.00,,,0.00,WUHU21623XXSP,2013-03-28 16:25:00,
2013-03-28 12:30:00,72.5,43.9,29.70,North,0,0.0,0.0,36,0.00,,,0.00,WUHU21623XXSP,2013-03-28 16:30:00,
2013-03-28 12:35:00,73.9,45.9,29.70,West,270,0.0,0.0,37,0.00,,,0.00,WUHU21623XXSP,2013-03-28 16:35:00,
2013-03-28 12:40:00,74.5,44.9,29.70,NE,45,0.0,0.0,35,0.00,,,0.00,WUHU21623XXSP,2013-03-28 16:40:00,
2013-03-28 12:45:00,74.5,43.3,29.70,NE,45,0.0,0.0,33,0.00,,,0.00,WUHU21623XXSP,2013-03-28 16:45:00,
2013-03-28 12:50:00,74.1,43.0,29.70,North,0,0.0,0.0,33,0.00,,,0.00,WUHU21623XXSP,2013-03-28 16:50:00,
2013-03-28 12:55:00,73.9,42.9,29.70,North,0,0.0,0.0,33,0.00,,,0.00,WUHU21623XXSP,2013-03-28 16:55:00,
2013-03-28 13:00:00,73.0,42.8,29.69,North,0,0.0,0.0,34,0.00,,,0.00,WUHU21623XXSP,2013-03-28 17:00:00,
2013-03-28 13:05:00,73.0,42.1,29.69,NNW,337,0.0,0.0,32,0.00,,,0.00,WUHU21623XXSP,2013-03-28 17:05:00,
2013-03-28 13:10:00,75.7,43.7,29.69,ESE,112,0.0,0.0,32,0.00,,,0.00,WUHU21623XXSP,2013-03-28 17:10:00,
2013-03-28 13:15:00,76.5,44.4,29.68,WNW,292,0.0,0.0,32,0.00,,,0.00,WUHU21623XXSP,2013-03-28 17:15:00,
2013-03-28 13:20:00,76.1,44.0,29.68,WSW,247,0.0,0.0,32,0.00,,,0.00,WUHU21623XXSP,2013-03-28 17:20:00,
2013-03-28 13:25:00,77.2,45.0,29.68,West,270,0.0,0.0,32,0.00,,,0.00,WUHU21623XXSP,2013-03-28 17:25:00,
2013-03-28 13:30:00,76.8,43.9,29.68,NW,315,0.0,0.0,31,0.00,,,0.00,WUHU21623XXSP,2013-03-28 17:30:00,
2013-03-28 13:35:00,77.0,44.1,29.67,North,0,0.0,0.0,31,0.00,,,0.00,WUHU21623XXSP,2013-03-28 17:35:00,
2013-03-28 13:40:00,76.8,43.9,29.67,NE,45,0.0,0.0,31,0.00,,,0.00,WUHU21623XXSP,2013-03-28 17:40:00,
2013-03-28 13:45:00,78.4,48.3,29.67,SSW,202,0.0,0.0,35,0.00,,,0.00,WUHU21623XXSP,2013-03-28 17:45:00,
2013-03-28 13:50:00,77.0,47.1,29.67,ESE,112,0.0,0.0,35,0.00,,,0.00,WUHU21623XXSP,2013-03-28 17:50:00,
2013-03-28 13:55:00,77.4,46.7,29.67,NE,45,0.0,0.0,34,0.00,,,0.00,WUHU21623XXSP,2013-03-28 17:55:00,
2013-03-28 14:00:00,77.4,46.7,29.67,NE,45,0.0,0.0,34,0.00,,,0.00,WUHU21623XXSP,2013-03-28 18:00:00,
2013-03-28 14:05:00,77.4,48.2,29.66,NNE,22,0.0,0.0,36,0.00,,,0.00,WUHU21623XXSP,2013-03-28 18:05:00,
2013-03-28 14:10:00,77.5,48.3,29.66,NE,45,0.0,0.0,36,0.00,,,0.00,WUHU21623XXSP,2013-03-28 18:10:00,
2013-03-28 14:15:00,77.5,47.6,29.65,NNE,22,0.0,0.0,35,0.00,,,0.00,WUHU21623XXSP,2013-03-28 18:15:00,
2013-03-28 14:20:00,76.8,47.7,29.65,North,0,0.0,0.0,36,0.00,,,0.00,WUHU21623XXSP,2013-03-28 18:20:00,
2013-03-28 14:25:00,76.3,47.2,29.65,NE,45,0.0,0.0,36,0.00,,,0.00,WUHU21623XXSP,2013-03-28 18:25:00,
2013-03-28 14:30:00,75.9,46.9,29.65,NNE,22,0.0,0.0,36,0.00,,,0.00,WUHU21623XXSP,2013-03-28 18:30:00,
2013-03-28 14:35:00,76.3,47.2,29.65,NE,45,0.0,0.0,36,0.00,,,0.00,WUHU21623XXSP,2013-03-28 18:35:00,
2013-03-28 14:40:00,75.9,47.7,29.64,SE,135,0.0,0.0,37,0.00,,,0.00,WUHU21623XXSP,2013-03-28 18:40:00,
2013-03-28 14:45:00,76.6,47.6,29.64,NNE,22,0.0,0.0,36,0.00,,,0.00,WUHU21623XXSP,2013-03-28 18:45:00,
2013-03-28 14:50:00,76.8,47.7,29.64,NNE,22,0.0,0.0,36,0.00,,,0.00,WUHU21623XXSP,2013-03-28 18:50:00,
2013-03-28 14:55:00,77.2,48.8,29.64,SSE,157,0.0,0.0,37,0.00,,,0.00,WUHU21623XXSP,2013-03-28 18:55:00,
2013-03-28 15:00:00,77.2,48.8,29.64,SSE,157,0.0,0.0,37,0.00,,,0.00,WUHU21623XXSP,2013-03-28 19:00:00,
2013-03-28 15:05:00,78.1,49.6,29.64,SE,135,0.0,0.0,37,0.00,,,0.00,WUHU21623XXSP,2013-03-28 19:05:00,
2013-03-28 15:10:00,76.1,47.8,29.63,East,90,0.0,0.0,37,0.00,,,0.00,WUHU21623XXSP,2013-03-28 19:10:00,
2013-03-28 15:15:00,76.1,47.8,29.63,ESE,112,0.0,0.0,37,0.00,,,0.00,WUHU21623XXSP,2013-03-28 19:15:00,
2013-03-28 15:20:00,75.7,48.3,29.63,NNW,337,0.0,0.0,38,0.00,,,0.00,WUHU21623XXSP,2013-03-28 19:20:00,
2013-03-28 15:25:00,75.0,47.6,29.63,NNE,22,0.0,0.0,38,0.00,,,0.00,WUHU21623XXSP,2013-03-28 19:25:00,
2013-03-28 15:30:00,75.6,48.1,29.63,NE,45,0.0,0.0,38,0.00,,,0.00,WUHU21623XXSP,2013-03-28 19:30:00,
2013-03-28 15:35:00,75.9,49.2,29.63,ESE,112,0.0,0.0,39,0.00,,,0.00,WUHU21623XXSP,2013-03-28 19:35:00,
2013-03-28 15:40:00,76.5,48.9,29.63,SE,135,0.0,0.0,38,0.00,,,0.00,WUHU21623XXSP,2013-03-28 19:40:00,
2013-03-28 15:45:00,76.1,49.3,29.62,NE,45,0.0,0.0,39,0.00,,,0.00,WUHU21623XXSP,2013-03-28 19:45:00,
2013-03-28 15:50:00,75.9,49.2,29.62,NNE,22,0.0,0.0,39,0.00,,,0.00,WUHU21623XXSP,2013-03-28 19:50:00,
2013-03-28 15:55:00,75.0,49.1,29.62,SE,135,0.0,0.0,40,0.00,,,0.00,WUHU21623XXSP,2013-03-28 19:55:00,
2013-03-28 16:00:00,74.8,49.5,29.62,NE,45,0.0,0.0,41,0.00,,,0.00,WUHU21623XXSP,2013-03-28 20:00:00,
2013-03-28 16:05:00,74.8,49.0,29.62,NE,45,0.0,0.0,40,0.00,,,0.00,WUHU21623XXSP,2013-03-28 20:05:00,
2013-03-28 16:10:00,75.6,49.6,29.62,NE,45,0.0,0.0,40,0.00,,,0.00,WUHU21623XXSP,2013-03-28 20:10:00,
2013-03-28 16:15:00,75.4,49.4,29.62,North,0,0.0,0.0,40,0.00,,,0.00,WUHU21623XXSP,2013-03-28 20:15:00,
2013-03-28 16:20:00,74.7,49.4,29.62,SE,135,0.0,0.0,41,0.00,,,0.00,WUHU21623XXSP,2013-03-28 20:20:00,
2013-03-28 16:25:00,75.0,49.7,29.62,NE,45,0.0,0.0,41,0.00,,,0.00,WUHU21623XXSP,2013-03-28 20:25:00,
2013-03-28 16:30:00,74.5,49.2,29.62,NE,45,0.0,0.0,41,0.00,,,0.00,WUHU21623XXSP,2013-03-28 20:30:00,
2013-03-28 16:35:00,73.6,49.0,29.62,ESE,112,0.0,0.0,42,0.00,,,0.00,WUHU21623XXSP,2013-03-28 20:35:00,
2013-03-28 16:40:00,73.9,49.3,29.61,NNE,22,0.0,0.0,42,0.00,,,0.00,WUHU21623XXSP,2013-03-28 20:40:00,
2013-03-28 16:45:00,73.8,49.2,29.62,ESE,112,0.0,0.0,42,0.00,,,0.00,WUHU21623XXSP,2013-03-28 20:45:00,
2013-03-28 16:50:00,73.4,48.8,29.62,North,0,0.0,0.0,42,0.00,,,0.00,WUHU21623XXSP,2013-03-28 20:50:00,
2013-03-28 16:55:00,73.2,48.7,29.62,NE,45,0.0,0.0,42,0.00,,,0.00,WUHU21623XXSP,2013-03-28 20:55:00,
2013-03-28 17:00:00,73.8,49.8,29.62,East,90,0.0,0.0,43,0.00,,,0.00,WUHU21623XXSP,2013-03-28 21:00:00,
2013-03-28 17:05:00,73.9,49.3,29.62,NNE,22,0.0,0.0,42,0.00,,,0.00,WUHU21623XXSP,2013-03-28 21:05:00,
2013-03-28 17:10:00,73.8,49.8,29.62,ENE,67,0.0,0.0,43,0.00,,,0.00,WUHU21623XXSP,2013-03-28 21:10:00,
2013-03-28 17:15:00,73.9,49.9,29.62,SE,135,0.0,0.0,43,0.00,,,0.00,WUHU21623XXSP,2013-03-28 21:15:00,
2013-03-28 17:20:00,74.3,50.3,29.62,ENE,67,0.0,0.0,43,0.00,,,0.00,WUHU21623XXSP,2013-03-28 21:20:00,
2013-03-28 17:25:00,73.6,49.0,29.62,NNE,22,0.0,0.0,42,0.00,,,0.00,WUHU21623XXSP,2013-03-28 21:25:00,
2013-03-28 17:30:00,73.0,49.1,29.62,NE,45,0.0,0.0,43,0.00,,,0.00,WUHU21623XXSP,2013-03-28 21:30:00,
2013-03-28 17:35:00,72.5,48.6,29.62,NE,45,0.0,0.0,43,0.00,,,0.00,WUHU21623XXSP,2013-03-28 21:35:00,
2013-03-28 17:40:00,72.5,48.6,29.62,ENE,67,0.0,0.0,43,0.00,,,0.00,WUHU21623XXSP,2013-03-28 21:40:00,
2013-03-28 17:45:00,72.3,48.5,29.62,ESE,112,0.0,0.0,43,0.00,,,0.00,WUHU21623XXSP,2013-03-28 21:45:00,
2013-03-28 17:50:00,72.3,48.5,29.62,NE,45,0.0,0.0,43,0.00,,,0.00,WUHU21623XXSP,2013-03-28 21:50:00,
2013-03-28 17:55:00,71.8,48.6,29.62,East,90,0.0,0.0,44,0.00,,,0.00,WUHU21623XXSP,2013-03-28 21:55:00,
2013-03-28 18:00:00,71.8,48.6,29.62,NNE,22,0.0,0.0,44,0.00,,,0.00,WUHU21623XXSP,2013-03-28 22:00:00,
2013-03-28 18:05:00,71.6,48.4,29.62,NNE,22,0.0,0.0,44,0.00,,,0.00,WUHU21623XXSP,2013-03-28 22:05:00,
2013-03-28 18:10:00,70.9,48.4,29.62,ENE,67,0.0,0.0,45,0.00,,,0.00,WUHU21623XXSP,2013-03-28 22:10:00,
2013-03-28 18:15:00,70.9,48.4,29.62,NE,45,0.0,0.0,45,0.00,,,0.00,WUHU21623XXSP,2013-03-28 22:15:00,
2013-03-28 18:20:00,70.7,48.8,29.63,NNE,22,0.0,0.0,46,0.00,,,0.00,WUHU21623XXSP,2013-03-28 22:20:00,
2013-03-28 18:25:00,70.5,48.6,29.63,NNE,22,0.0,0.0,46,0.00,,,0.00,WUHU21623XXSP,2013-03-28 22:25:00,
2013-03-28 18:30:00,70.0,47.0,29.63,NE,45,0.0,0.0,44,0.00,,,0.00,WUHU21623XXSP,2013-03-28 22:30:00,
2013-03-28 18:35:00,69.1,45.6,29.63,NE,45,0.0,0.0,43,0.00,,,0.00,WUHU21623XXSP,2013-03-28 22:35:00,
2013-03-28 18:40:00,69.1,45.6,29.63,ENE,67,0.0,0.0,43,0.00,,,0.00,WUHU21623XXSP,2013-03-28 22:40:00,
2013-03-28 18:45:00,68.7,44.6,29.63,ENE,67,0.0,0.0,42,0.00,,,0.00,WUHU21623XXSP,2013-03-28 22:45:00,
2013-03-28 18:50:00,68.2,43.6,29.63,NNE,22,0.0,0.0,41,0.00,,,0.00,WUHU21623XXSP,2013-03-28 22:50:00,
2013-03-28 18:55:00,68.0,43.4,29.63,NE,45,0.0,0.0,41,0.00,,,0.00,WUHU21623XXSP,2013-03-28 22:55:00,
2013-03-28 19:00:00,67.8,43.8,29.64,NNE,22,0.0,0.0,42,0.00,,,0.00,WUHU21623XXSP,2013-03-28 23:00:00,
2013-03-28 19:05:00,67.6,44.3,29.64,ENE,67,0.0,0.0,43,0.00,,,0.00,WUHU21623XXSP,2013-03-28 23:05:00,
2013-03-28 19:10:00,67.3,42.2,29.64,NNE,22,0.0,0.0,40,0.00,,,0.00,WUHU21623XXSP,2013-03-28 23:10:00,
2013-03-28 19:15:00,67.1,40.5,29.64,NE,45,0.0,0.0,38,0.00,,,0.00,WUHU21623XXSP,2013-03-28 23:15:00,
2013-03-28 19:20:00,66.9,41.1,29.64,ENE,67,0.0,0.0,39,0.00,,,0.00,WUHU21623XXSP,2013-03-28 23:20:00,
2013-03-28 19:25:00,66.7,41.7,29.65,NE,45,0.0,0.0,40,0.00,,,0.00,WUHU21623XXSP,2013-03-28 23:25:00,
2013-03-28 19:30:00,66.6,42.7,29.65,NE,45,0.0,0.0,42,0.00,,,0.00,WUHU21623XXSP,2013-03-28 23:30:00,
2013-03-28 19:35:00,66.4,42.5,29.65,NE,45,0.0,0.0,42,0.00,,,0.00,WUHU21623XXSP,2013-03-28 23:35:00,
2013-03-28 19:40:00,66.2,42.4,29.65,NE,45,0.0,0.0,42,0.00,,,0.00,WUHU21623XXSP,2013-03-28 23:40:00,
2013-03-28 19:45:00,66.0,41.6,29.65,NNE,22,0.0,0.0,41,0.00,,,0.00,WUHU21623XXSP,2013-03-28 23:45:00,
2013-03-28 19:50:00,66.0,41.6,29.65,East,90,0.0,0.0,41,0.00,,,0.00,WUHU21623XXSP,2013-03-28 23:50:00,
2013-03-28 19:55:00,65.8,41.4,29.65,NE,45,0.0,0.0,41,0.00,,,0.00,WUHU21623XXSP,2013-03-28 23:55:00,
2013-03-28 20:00:00,65.8,41.4,29.66,NE,45,0.0,0.0,41,0.00,,,0.00,WUHU21623XXSP,2013-03-29 00:00:00,
2013-03-28 20:05:00,65.3,40.9,29.66,NNE,22,0.0,0.0,41,0.00,,,0.00,WUHU21623XXSP,2013-03-29 00:05:00,
2013-03-28 20:10:00,65.1,40.2,29.66,NE,45,0.0,0.0,40,0.00,,,0.00,WUHU21623XXSP,2013-03-29 00:10:00,
2013-03-28 20:15:00,65.1,40.2,29.66,NE,45,0.0,0.0,40,0.00,,,0.00,WUHU21623XXSP,2013-03-29 00:15:00,
2013-03-28 20:20:00,64.9,39.3,29.66,NE,45,0.0,0.0,39,0.00,,,0.00,WUHU21623XXSP,2013-03-29 00:20:00,
2013-03-28 20:25:00,64.8,39.2,29.66,NNE,22,0.0,0.0,39,0.00,,,0.00,WUHU21623XXSP,2013-03-29 00:25:00,
2013-03-28 20:30:00,64.6,39.0,29.66,NNE,22,0.0,0.0,39,0.00,,,0.00,WUHU21623XXSP,2013-03-29 00:30:00,
2013-03-28 20:35:00,64.4,38.8,29.67,NNE,22,0.0,0.0,39,0.00,,,0.00,WUHU21623XXSP,2013-03-29 00:35:00,
2013-03-28 20:40:00,64.2,38.7,29.66,NNE,22,0.0,0.0,39,0.00,,,0.00,WUHU21623XXSP,2013-03-29 00:40:00,
2013-03-28 20:45:00,64.2,38.7,29.67,NNE,22,0.0,0.0,39,0.00,,,0.00,WUHU21623XXSP,2013-03-29 00:45:00,
2013-03-28 20:50:00,64.0,37.8,29.67,NNE,22,0.0,0.0,38,0.00,,,0.00,WUHU21623XXSP,2013-03-29 00:50:00,
2013-03-28 20:55:00,63.7,36.8,29.67,NNE,22,0.0,0.0,37,0.00,,,0.00,WUHU21623XXSP,2013-03-29 00:55:00,
2013-03-28 21:00:00,63.7,36.8,29.67,NNE,22,0.0,0.0,37,0.00,,,0.00,WUHU21623XXSP,2013-03-29 01:00:00,
2013-03-28 21:05:00,63.7,36.8,29.67,NE,45,0.0,0.0,37,0.00,,,0.00,WUHU21623XXSP,2013-03-29 01:05:00,
2013-03-28 21:10:00,63.5,36.6,29.67,NE,45,0.0,0.0,37,0.00,,,0.00,WUHU21623XXSP,2013-03-29 01:10:00,
2013-03-28 21:15:00,63.5,36.6,29.67,NE,45,0.0,0.0,37,0.00,,,0.00,WUHU21623XXSP,2013-03-29 01:15:00,
2013-03-28 21:20:00,63.1,37.0,29.68,NE,45,0.0,0.0,38,0.00,,,0.00,WUHU21623XXSP,2013-03-29 01:20:00,
2013-03-28 21:25:00,63.0,36.8,29.68,NE,45,0.0,0.0,38,0.00,,,0.00,WUHU21623XXSP,2013-03-29 01:25:00,
2013-03-28 21:30:00,63.0,37.5,29.68,NE,45,0.0,0.0,39,0.00,,,0.00,WUHU21623XXSP,2013-03-29 01:30:00,
2013-03-28 21:35:00,62.8,37.4,29.68,NE,45,0.0,0.0,39,0.00,,,0.00,WUHU21623XXSP,2013-03-29 01:35:00,
2013-03-28 21:40:00,62.6,37.9,29.68,NE,45,0.0,0.0,40,0.00,,,0.00,WUHU21623XXSP,2013-03-29 01:40:00,
2013-03-28 21:45:00,62.4,37.8,29.69,NE,45,0.0,0.0,40,0.00,,,0.00,WUHU21623XXSP,2013-03-29 01:45:00,
2013-03-28 21:50:00,62.2,38.2,29.69,NE,45,0.0,0.0,41,0.00,,,0.00,WUHU21623XXSP,2013-03-29 01:50:00,
2013-03-28 21:55:00,62.2,38.2,29.69,NE,45,0.0,0.0,41,0.00,,,0.00,WUHU21623XXSP,2013-03-29 01:55:00,
2013-03-28 22:00:00,62.1,38.0,29.69,NE,45,0.0,0.0,41,0.00,,,0.00,WUHU21623XXSP,2013-03-29 02:00:00,
2013-03-28 22:05:00,61.9,38.4,29.69,NE,45,0.0,0.0,42,0.00,,,0.00,WUHU21623XXSP,2013-03-29 02:05:00,
2013-03-28 22:10:00,61.9,38.4,29.69,NE,45,0.0,0.0,42,0.00,,,0.00,WUHU21623XXSP,2013-03-29 02:10:00,
2013-03-28 22:15:00,61.7,38.9,29.70,NE,45,0.0,0.0,43,0.00,,,0.00,WUHU21623XXSP,2013-03-29 02:15:00,
2013-03-28 22:20:00,61.7,38.9,29.69,NE,45,0.0,0.0,43,0.00,,,0.00,WUHU21623XXSP,2013-03-29 02:20:00,
2013-03-28 22:25:00,61.5,39.3,29.70,NE,45,0.0,0.0,44,0.00,,,0.00,WUHU21623XXSP,2013-03-29 02:25:00,
2013-03-28 22:30:00,61.5,39.3,29.70,NE,45,0.0,0.0,44,0.00,,,0.00,WUHU21623XXSP,2013-03-29 02:30:00,
2013-03-28 22:35:00,61.3,39.7,29.70,NE,45,0.0,0.0,45,0.00,,,0.00,WUHU21623XXSP,2013-03-29 02:35:00,
2013-03-28 22:40:00,61.2,39.5,29.70,NE,45,0.0,0.0,45,0.00,,,0.00,WUHU21623XXSP,2013-03-29 02:40:00,
2013-03-28 22:45:00,61.0,39.4,29.70,NE,45,0.0,0.0,45,0.00,,,0.00,WUHU21623XXSP,2013-03-29 02:45:00,
2013-03-28 22:50:00,60.6,39.6,29.70,NE,45,0.0,0.0,46,0.00,,,0.00,WUHU21623XXSP,2013-03-29 02:50:00,
2013-03-28 22:55:00,60.6,39.6,29.70,NE,45,0.0,0.0,46,0.00,,,0.00,WUHU21623XXSP,2013-03-29 02:55:00,
2013-03-28 23:00:00,60.6,40.2,29.70,NE,45,0.0,0.0,47,0.00,,,0.00,WUHU21623XXSP,2013-03-29 03:00:00,
2013-03-28 23:05:00,60.4,40.0,29.69,NE,45,0.0,0.0,47,0.00,,,0.00,WUHU21623XXSP,2013-03-29 03:05:00,
2013-03-28 23:10:00,60.4,40.0,29.70,NE,45,0.0,0.0,47,0.00,,,0.00,WUHU21623XXSP,2013-03-29 03:10:00,
2013-03-28 23:15:00,60.3,40.4,29.70,NE,45,0.0,0.0,48,0.00,,,0.00,WUHU21623XXSP,2013-03-29 03:15:00,
2013-03-28 23:20:00,60.1,40.3,29.70,NNE,22,0.0,0.0,48,0.00,,,0.00,WUHU21623XXSP,2013-03-29 03:20:00,
2013-03-28 23:25:00,60.1,40.3,29.70,NNE,22,0.0,0.0,48,0.00,,,0.00,WUHU21623XXSP,2013-03-29 03:25:00,
2013-03-28 23:30:00,60.1,40.3,29.70,NNE,22,0.0,0.0,48,0.00,,,0.00,WUHU21623XXSP,2013-03-29 03:30:00,
2013-03-28 23:35:00,60.1,40.3,29.70,NNE,22,0.0,0.0,48,0.00,,,0.00,WUHU21623XXSP,2013-03-29 03:35:00,
2013-03-28 23:40:00,59.9,40.7,29.70,NNE,22,0.0,0.0,49,0.00,,,0.00,WUHU21623XXSP,2013-03-29 03:40:00,
2013-03-28 23:45:00,59.7,40.5,29.70,NNE,22,0.0,0.0,49,0.00,,,0.00,WUHU21623XXSP,2013-03-29 03:45:00,
2013-03-28 23:50:00,59.5,40.4,29.70,NNE,22,0.0,0.0,49,0.00,,,0.00,WUHU21623XXSP,2013-03-29 03:50:00,
2013-03-28 23:55:00,59.5,40.4,29.70,NNE,22,0.0,0.0,49,0.00,,,0.00,WUHU21623XXSP,2013-03-29 03:55:00,